Location: *
(46.1006°N, 1.8394°E)
Time: 13:23:54
(UTC+00:00)

Cosmos 2084 Rocket - Pass Details

Date: 20 September 2019
Orbit: 571 x 610 km, 62.8° (Epoch: 18 October)

Event Time Altitude Azimuth Distance (km) Brightness Sun altitude
Rises 19:07:09 0° 196° (SSW) 2,848 7.0 -13.2°
Reaches altitude 10° 19:09:31 10° 188° (S) 1,952 6.0 -13.6°
Maximum altitude 19:13:35 37° 121° (ESE) 953 4.0 -14.2°
Enters shadow 19:17:37 10° 54° (NE) 1,942 5.8 -14.9°
